Wind_Speed
18 18 17 23 24 24 25 24 24 23 22 21 21 22 22 21 19 18 17 18 19 22 26 28 33 31 25 18 17 21 16 14
19 20 20 23 25 25 26 28 26 25 24 22 22 23 23 22 20 19 18 19 20 23 27 31 34 31 24 19 18 16 15 12
21 23 24 24 26 28 27 29 29 28 27 25 24 25 25 25 23 21 20 20 21 24 28 33 35 29 25 21 20 19 15 13
19 22 25 25 27 29 31 32 32 32 32 30 29 28 28 27 25 23 22 21 22 25 30 34 35 31 27 22 20 20 16 15
28 27 29 29 29 31 33 36 37 36 35 34 33 31 31 31 29 27 26 25 25 28 32 36 36 32 26 18 18 22 21 16
30 31 31 28 28 30 34 40 42 42 41 39 38 37 36 36 35 33 31 30 28 31 34 37 38 33 26 20 20 23 20 16
32 33 32 30 32 33 35 43 47 46 44 44 43 42 41 40 39 37 35 33 31 32 35 38 40 37 27 22 25 21 18 16
18 21 34 33 35 33 34 37 47 48 48 47 47 46 45 45 43 42 39 36 33 33 36 39 41 39 32 24 24 22 17 15
23 16 12 29 39 36 38 37 42 51 50 50 50 50 49 49 48 46 43 39 35 35 35 37 40 41 38 29 26 23 20 18
28 24 17 12 31 41 44 43 42 46 52 54 53 54 53 53 52 50 47 42 39 38 38 38 41 42 42 34 30 25 22 21
31 30 27 19 13 28 38 51 47 50 52 54 55 55 56 57 56 53 50 47 44 42 41 41 43 44 41 36 33 27 24 22
32 30 31 24 22 23 32 43 48 52 53 53 55 57 58 59 59 57 54 51 49 46 45 44 44 47 42 34 31 28 24 23
39 35 33 28 22 22 22 29 43 49 53 52 55 56 59 61 62 61 58 56 54 50 49 48 47 46 43 34 28 28 25 23
44 40 36 33 27 18 22 23 35 39 48 53 55 55 59 64 61 63 62 59 55 55 54 54 50 48 49 42 32 27 27 28
44 42 38 34 34 33 28 30 29 37 42 54 56 56 59 62 63 62 64 63 61 59 58 58 57 52 48 46 25 20 34 33
45 40 35 32 31 32 29 45 47 38 41 29 54 50 61 61 65 66 65 66 63 62 61 62 61 59 53 49 39 31 32 22
44 42 37 25 28 25 25 37 57 58 41 50 38 53 62 65 66 70 67 67 66 65 63 65 64 63 62 57 46 33 38 25
45 49 43 33 21 21 19 24 38 32 32 33 50 46 52 64 66 67 71 68 69 68 65 65 67 64 63 61 59 52 43 41
46 47 49 44 33 16 16 11 22 26 36 37 35 34 51 59 69 70 72 73 72 71 67 67 68 67 66 62 61 58 54 47
46 45 51 49 46 31 22 13 9 23 34 29 28 29 40 29 66 70 73 72 72 71 71 68 68 68 67 65 62 60 56 53
Wind_Direction
218 212 220 221 213 205 202 198 197 201 196 192 191 186 182 180 177 173 168 163 160 156 160 156 156 152 149 161 156 154 150 146
224 225 224 223 220 215 208 209 201 204 207 199 197 193 188 186 184 176 173 169 165 162 165 159 158 152 156 163 161 165 162 161
235 234 226 226 224 222 216 215 209 205 208 207 202 199 194 193 190 182 179 175 170 167 168 164 160 157 164 168 162 165 163 159
244 247 239 235 232 226 219 215 213 211 210 207 208 204 201 198 194 188 184 181 174 172 171 169 165 164 167 164 174 174 166 157
254 261 257 247 248 240 228 219 214 213 212 211 209 207 203 202 197 192 189 186 179 175 175 175 171 170 165 171 174 182 166 163
260 255 256 250 252 257 248 229 222 216 212 212 211 209 206 204 202 198 195 191 186 180 179 178 175 171 170 169 164 163 169 170
270 258 253 247 252 254 258 239 226 220 216 214 214 212 210 207 205 204 200 196 190 184 181 180 180 174 177 174 169 168 172 178
15 267 261 251 249 257 252 252 232 225 221 218 217 216 213 211 208 207 205 200 195 190 184 183 184 183 181 183 181 181 183 192
342 1 301 263 257 246 254 251 247 231 225 224 219 218 215 216 211 210 208 203 198 192 188 185 185 189 187 195 192 191 196 202
339 333 326 309 249 251 251 250 242 244 233 225 221 220 217 218 214 213 210 205 201 196 191 187 187 189 189 195 197 198 206 203
329 333 327 318 293 257 248 250 242 238 238 230 223 220 219 218 217 215 213 207 203 199 195 191 187 186 188 193 198 201 203 202
327 322 327 322 298 290 261 246 243 238 238 233 228 222 220 218 219 216 215 208 205 201 198 193 191 188 186 191 197 202 207 209
330 323 320 323 317 295 284 252 244 241 235 234 230 227 220 219 218 217 215 210 207 203 199 195 193 190 186 191 201 206 213 221
336 325 320 325 318 296 303 288 254 244 240 234 230 230 222 218 215 217 215 212 209 205 201 196 196 192 189 185 185 192 213 224
353 341 323 316 317 311 270 286 283 262 241 235 228 230 224 219 214 215 217 214 210 208 204 201 196 195 196 185 177 196 199 212
357 354 344 321 315 314 295 264 280 296 273 254 232 224 220 223 214 214 219 217 214 211 208 206 202 195 196 196 197 195 184 195
2 1 357 339 313 312 302 267 261 275 290 276 290 233 214 223 216 215 219 218 216 213 211 208 205 201 198 197 204 200 200 195
3 6 5 2 333 324 313 267 260 266 281 290 277 273 228 215 213 212 218 219 218 216 213 211 208 206 207 203 204 204 204 207
6 6 6 12 5 352 339 308 257 260 257 258 279 276 237 221 214 211 211 217 219 218 214 214 211 209 212 208 209 212 216 215
6 8 6 12 16 14 9 354 328 254 251 258 272 269 273 250 222 212 211 216 217 215 218 215 214 214 216 216 212 217 219 219
Height
1503 1505 1507 1510 1511 1511 1514 1514 1515 1519 1520 1522 1524 1527 1529 1532 1535 1538 1542 1545 1548 1550 1553 1555 1558 1562 1566 1569 1570 1571 1574 1576
1501 1502 1504 1507 1509 1510 1511 1515 1513 1517 1521 1522 1523 1526 1527 1531 1534 1536 1540 1542 1546 1549 1553 1555 1558 1562 1566 1567 1570 1572 1574 1577
1500 1500 1500 1502 1506 1507 1508 1514 1514 1513 1517 1521 1523 1525 1526 1529 1532 1535 1538 1541 1544 1548 1552 1555 1558 1562 1565 1567 1569 1572 1574 1577
1498 1499 1500 1500 1503 1504 1506 1507 1511 1512 1513 1516 1519 1523 1525 1527 1530 1534 1536 1539 1542 1546 1550 1555 1558 1561 1564 1566 1568 1571 1574 1576
1492 1494 1495 1497 1499 1501 1501 1503 1506 1508 1510 1513 1516 1520 1522 1525 1528 1531 1534 1536 1539 1543 1547 1552 1556 1559 1562 1565 1566 1569 1573 1576
1487 1487 1489 1492 1496 1497 1498 1498 1500 1502 1505 1508 1511 1514 1518 1521 1524 1527 1530 1532 1536 1540 1543 1549 1554 1558 1561 1564 1565 1568 1571 1574
1487 1482 1483 1484 1486 1489 1491 1492 1491 1496 1501 1503 1506 1508 1512 1515 1520 1523 1526 1530 1532 1537 1541 1545 1552 1555 1557 1562 1565 1567 1570 1573
1480 1482 1484 1478 1479 1479 1482 1485 1488 1488 1492 1495 1499 1503 1507 1509 1514 1517 1522 1526 1529 1533 1537 1542 1548 1553 1556 1558 1563 1565 1568 1571
1477 1476 1475 1477 1477 1473 1472 1476 1480 1483 1483 1486 1491 1495 1500 1503 1507 1511 1516 1522 1526 1531 1535 1540 1545 1550 1555 1554 1559 1563 1565 1569
1474 1471 1471 1468 1467 1472 1466 1465 1470 1473 1477 1477 1481 1486 1492 1496 1501 1505 1510 1518 1523 1526 1530 1535 1540 1544 1550 1552 1555 1560 1563 1566
1465 1463 1462 1462 1461 1461 1461 1461 1457 1463 1466 1471 1472 1477 1482 1488 1493 1498 1503 1510 1516 1521 1525 1529 1533 1539 1546 1550 1553 1556 1561 1563
1462 1459 1455 1454 1455 1454 1453 1455 1457 1453 1459 1462 1466 1469 1473 1480 1485 1491 1496 1502 1508 1514 1520 1524 1529 1534 1541 1547 1550 1554 1558 1561
1458 1454 1452 1449 1449 1448 1447 1445 1452 1451 1449 1453 1456 1459 1464 1467 1475 1481 1487 1493 1499 1506 1512 1518 1523 1531 1537 1545 1549 1552 1555 1558
1455 1449 1447 1446 1444 1443 1442 1441 1440 1437 1446 1445 1445 1449 1452 1457 1464 1470 1477 1485 1493 1499 1503 1509 1517 1524 1526 1536 1543 1549 1551 1553
1458 1449 1440 1437 1433 1428 1432 1434 1435 1433 1434 1437 1436 1437 1442 1449 1456 1462 1468 1475 1482 1489 1494 1499 1504 1516 1520 1520 1532 1535 1540 1547
1458 1450 1441 1434 1428 1423 1420 1426 1423 1425 1423 1416 1434 1430 1436 1439 1444 1450 1458 1465 1473 1480 1487 1491 1495 1501 1512 1516 1519 1519 1527 1536
1461 1452 1442 1431 1425 1423 1417 1414 1417 1412 1412 1398 1409 1425 1419 1426 1434 1439 1446 1453 1461 1469 1477 1484 1488 1493 1499 1505 1512 1516 1520 1521
1462 1453 1444 1433 1424 1417 1410 1406 1409 1412 1406 1395 1404 1412 1384 1417 1424 1429 1433 1441 1451 1460 1467 1475 1480 1485 1492 1497 1499 1503 1510 1514
1463 1453 1445 1434 1422 1413 1408 1404 1407 1405 1404 1405 1403 1396 1398 1401 1412 1415 1417 1423 1435 1448 1458 1466 1470 1475 1480 1488 1494 1497 1502 1508
1466 1454 1443 1432 1420 1410 1404 1398 1390 1394 1396 1397 1402 1389 1391 1378 1395 1401 1406 1419 1424 1431 1445 1454 1463 1466 1473 1479 1486 1493 1497 1500